GEESAT-6 11

Last updated on Mon Oct 20 2025 00:02:06 GMT+0000 (Coordinated Universal Time)

1 65723U 25214M 25292.23124257 .00008029 00000+0 81851-3 0 9997 2 65723 49.9859 345.8141 0013599 25.4092 334.7515 14.91329730 3723
UTC large
Height (km)
Speed (km/s)
/
Latitude / Longitude
Inclination (degrees)
Orbital Period (minutes)
Azimuth
Elevation
Range (km)
Doppler Factor

Next 0 passes for location: London (51.5072 / 0.1276)

Sorry there are no passes over London.